FW6369 Weather Reports


Display with metric or nautical units.
time (UTC)temp
F
wind
direction
speed
MPH
gust
MPH
rain 1hr
in
rain 24hr
in
rain mn
in
humidity
%
barometer
mb
20260503210048 63 146 1.0 5.0 0.00 0.00 0.00 68 1012.6
20260503204550 62 355 1.0 6.0 0.00 0.00 0.00 69 1012.8
20260503203049 62 18 0.0 2.0 0.00 0.00 0.00 70 1012.8
20260503201548 61 23 0.0 4.0 0.00 0.00 0.00 71 1012.7
20260503200056 60 0 1.0 4.0 0.00 0.00 0.00 73 1012.9
20260503194556 60 9 1.0 4.0 0.00 0.00 0.00 71 1013.0
20260503193054 60 0 1.0 4.0 0.00 0.00 0.00 72 1013.0
20260503191604 58 162 0.0 4.0 0.00 0.00 0.00 75 1013.1
20260503190050 58 131 2.0 6.0 0.00 0.00 0.00 75 1013.1
20260503184551 57 224 0.0 4.0 0.00 0.00 0.00 76 1013.1
20260503183129 57 180 0.0 5.0 0.00 0.00 0.00 76 1013.2
20260503181617 58 323 1.0 3.0 0.00 0.00 0.00 76 1013.2
20260503180049 58 290 1.0 4.0 0.00 0.00 0.00 75 1013.1
20260503174550 58 98 1.0 7.0 0.00 0.00 0.00 76 1013.0
20260503173055 57 5 1.0 6.0 0.00 0.00 0.00 78 1012.9
20260503171553 57 187 1.0 4.0 0.00 0.00 0.00 79 1012.8
20260503100103 53 159 0.0 3.0 0.00 0.00 0.00 89 1010.7
20260503081550 53 109 1.0 4.0 0.00 0.00 0.00 86 1011.4
20260503071557 54 113 1.0 4.0 0.00 0.00 0.00 85 1011.5
20260503070111 54 136 1.0 3.0 0.00 0.00 0.00 85 1011.6
20260503060114 54 117 1.0 4.0 0.00 0.00 0.00 85 1012.1
20260503054554 54 0 0.0 3.0 0.00 0.00 0.00 85 1012.0
20260503053051 54 116 1.0 4.0 0.00 0.00 0.00 85 1012.1
20260503051553 54 113 1.0 4.0 0.00 0.00 0.00 84 1012.2
20260503050054 54 112 1.0 4.0 0.00 0.00 0.00 84 1012.1
20260503044551 54 113 1.0 6.0 0.00 0.00 0.00 83 1012.1
20260503043048 55 121 2.0 4.0 0.00 0.00 0.00 83 1012.0
20260503041554 55 0 2.0 4.0 0.00 0.00 0.00 83 1011.8
20260503040051 55 185 1.0 4.0 0.00 0.00 0.00 83 1011.6
20260503034556 55 138 1.0 4.0 0.00 0.00 0.00 83 1011.4
20260503033055 55 119 0.0 4.0 0.00 0.00 0.00 83 1011.2
20260503031551 55 96 3.0 6.0 0.00 0.00 0.00 82 1011.1
20260503030057 55 126 1.0 6.0 0.00 0.00 0.00 82 1011.1
20260503024552 55 94 2.0 7.0 0.00 0.00 0.00 81 1011.2
20260503023101 56 93 2.0 7.0 0.00 0.00 0.00 80 1011.3
20260503021555 56 225 1.0 6.0 0.00 0.00 0.00 80 1011.2
20260503020054 56 114 1.0 7.0 0.00 0.00 0.00 80 1011.3
20260503014550 57 132 4.0 7.0 0.00 0.00 0.00 78 1011.3
20260503013055 57 94 4.0 8.0 0.00 0.00 0.00 78 1011.3
20260503011606 57 178 2.0 11.0 0.00 0.00 0.00 78 1011.5
20260503010119 58 211 1.0 8.0 0.00 0.00 0.00 77 1011.4
20260503004552 58 232 2.0 5.0 0.00 0.00 0.00 77 1011.5
20260503003053 59 207 3.0 8.0 0.00 0.00 0.00 77 1011.6
20260503001611 59 145 2.0 7.0 0.00 0.00 0.00 76 1011.6
20260503000113 60 132 1.0 9.0 0.00 0.00 0.00 76 1011.6
20260502234558 60 190 1.0 11.0 0.00 0.00 0.00 75 1011.6
20260502233053 61 0 2.0 7.0 0.00 0.00 0.00 75 1011.8
20260502231549 61 55 3.0 7.0 0.00 0.00 0.00 76 1011.8
20260502230049 61 178 2.0 8.0 0.00 0.00 0.00 77 1011.9
20260502224557 61 200 2.0 8.0 0.00 0.00 0.00 77 1012.1
20260502223049 61 27 1.0 8.0 0.00 0.00 0.00 78 1012.3
20260502221552 61 183 2.0 7.0 0.00 0.00 0.00 78 1012.4
20260502220050 61 134 0.0 6.0 0.00 0.00 0.00 77 1012.5
20260502214605 61 92 1.0 7.0 0.00 0.00 0.00 78 1012.7
20260502213052 61 150 1.0 8.0 0.00 0.00 0.00 77 1012.7
20260502211558 61 40 1.0 7.0 0.00 0.00 0.00 77 1012.9